Theta_e
324 324 324 324 325 325 325 325 326 328 329 329 331 331 330 332 330 328 323 328 331 332 327 326 325 324 325 321 322 322 310 305 307 308 310 311 308 314 316 316 318 322 322 325 334
323 323 324 324 324 324 324 324 326 327 328 329 329 331 330 329 328 324 331 332 332 332 326 320 319 321 317 318 318 313 307 307 313 314 313 314 310 312 313 314 316 319 324 327 332
322 322 323 323 324 324 324 324 324 325 327 327 328 329 328 330 319 318 333 334 332 329 327 324 320 318 313 317 316 313 306 311 313 315 317 316 311 312 311 310 314 315 321 326 329
321 321 322 322 323 323 324 323 324 324 325 326 327 328 327 327 302 323 333 334 332 329 324 321 317 312 309 309 315 310 312 312 312 315 313 313 317 315 314 313 317 319 321 326 327
319 320 320 321 322 323 323 323 323 324 324 325 326 326 322 312 312 326 331 332 329 326 321 318 314 312 307 308 310 311 312 313 314 314 312 312 310 311 313 318 319 317 316 322 326
318 319 319 320 320 322 322 322 323 323 323 324 325 324 317 305 322 326 329 328 326 324 320 318 315 315 311 309 307 310 309 310 313 314 315 310 311 313 313 316 316 313 314 317 322
316 317 318 319 320 320 321 321 322 322 323 323 323 321 312 310 323 325 327 327 327 325 319 320 317 313 312 306 312 310 305 308 308 309 309 313 308 309 315 315 314 315 316 317 320
314 315 317 318 319 319 320 321 320 321 322 321 321 317 305 319 324 322 325 323 327 326 323 323 320 315 310 311 307 304 305 300 307 308 308 308 298 305 312 314 313 315 317 317 319
312 314 316 317 318 318 319 320 319 320 321 319 314 311 301 316 314 320 322 318 321 322 321 321 317 310 307 303 298 301 295 299 302 309 307 306 301 304 308 307 308 313 315 317 319
311 312 314 315 317 317 318 319 318 318 315 314 312 302 305 304 312 316 321 319 315 314 312 313 309 304 303 300 290 294 294 298 298 304 305 304 304 307 308 310 308 309 311 314 318
311 311 313 314 316 318 316 312 303 301 306 299 300 300 302 307 313 313 317 316 313 308 300 305 300 295 300 301 301 300 298 298 302 305 301 302 303 305 308 309 307 308 309 312 317
310 311 312 314 315 317 314 304 304 306 296 302 303 304 305 307 301 307 316 305 304 298 303 299 294 302 303 303 300 300 296 295 301 304 302 302 301 305 307 308 309 308 308 309 310
309 310 311 313 314 312 307 307 313 311 296 296 301 301 302 305 299 300 309 306 301 298 298 294 298 302 300 299 297 298 295 294 295 301 303 300 298 301 306 308 309 310 311 311 310
309 309 310 312 306 306 302 311 312 312 288 289 294 299 302 303 296 305 308 305 300 296 297 296 301 298 298 296 298 293 300 298 296 294 291 300 289 299 304 305 307 308 309 309 310
308 309 310 311 304 300 305 311 310 305 276 291 293 306 302 297 298 299 308 303 296 296 296 293 295 295 294 297 300 295 301 299 297 294 293 295 289 295 302 301 304 307 309 310 311
308 308 309 308 305 306 308 309 303 283 277 286 294 294 294 296 296 300 301 303 301 296 297 296 301 299 298 300 301 301 298 297 295 292 284 292 292 293 297 301 304 308 309 310 310
307 308 307 308 298 308 308 301 282 277 287 284 287 292 292 290 292 295 294 292 290 286 287 292 294 299 301 296 298 298 293 285 283 282 284 295 292 295 301 303 305 306 308 310 311
307 308 307 307 308 308 302 288 278 283 285 290 290 291 288 291 291 292 291 288 293 291 287 285 283 293 298 297 295 292 291 287 280 282 286 293 288 295 304 306 308 308 308 309 309
307 305 304 306 307 306 292 280 282 284 289 287 288 285 286 290 290 291 290 289 292 293 285 285 284 294 295 297 297 293 287 294 287 288 284 289 295 300 304 302 303 305 306 307 308
302 300 299 306 306 299 285 284 284 290 291 291 284 287 283 286 287 288 289 292 291 294 295 290 283 292 293 296 296 294 297 287 287 282 280 286 289 291 298 300 303 303 305 306 309
298 290 300 305 303 291 281 285 284 292 293 289 287 286 287 286 288 287 288 292 295 294 296 293 288 288 292 291 290 292 290 291 291 288 283 282 287 298 298 301 302 304 305 307 308
295 284 301 302 286 285 284 286 290 291 295 292 291 290 288 289 287 288 287 290 296 295 290 293 289 284 287 294 296 295 292 292 286 284 288 287 288 301 302 303 303 304 305 306 307
289 288 300 298 282 284 285 287 291 291 291 291 289 291 291 288 284 289 290 295 295 294 291 293 287 281 283 288 293 290 293 293 293 292 285 284 287 301 303 303 304 303 305 304 303
291 284 288 291 291 287 285 286 287 294 291 292 291 292 290 288 290 287 288 292 295 295 296 296 289 285 281 284 290 287 290 291 291 285 286 288 291 297 300 301 303 305 305 303 301
293 285 285 282 284 289 289 287 286 285 291 293 290 291 289 285 287 286 289 291 294 296 295 293 284 287 288 289 289 288 288 289 287 290 285 289 291 294 298 302 304 305 306 305 305
289 288 291 287 288 288 288 286 286 287 289 287 289 291 291 287 288 286 290 290 289 293 292 293 285 285 282 287 287 285 288 288 289 289 288 288 287 296 299 301 303 304 305 304 305
295 298 293 288 287 286 287 287 287 289 288 292 292 289 289 291 293 295 295 293 292 291 290 289 287 284 280 286 285 280 285 286 288 290 289 285 292 297 296 298 302 303 305 305 306
Wind_Speed
21 20 18 17 17 16 14 13 10 8 8 7 8 8 6 9 6 6 13 2 2 2 5 5 6 5 6 5 5 3 10 13 17 15 14 9 6 4 2 6 2 4 4 4 15
22 21 20 19 18 17 15 13 12 9 9 8 8 7 6 11 11 17 2 7 2 3 9 8 8 5 8 8 4 8 11 18 15 14 12 11 10 7 6 9 8 8 5 4 13
22 22 21 20 19 18 17 14 12 11 9 8 8 9 10 8 11 11 11 9 6 6 8 7 5 8 11 8 10 8 16 15 16 13 14 16 14 6 7 10 9 11 12 11 12
18 21 22 21 20 19 18 16 13 12 11 9 9 12 12 9 11 5 20 17 11 8 9 9 8 11 10 16 14 11 14 17 14 11 11 16 18 22 14 16 3 5 2 12 14
16 18 21 21 21 20 18 17 14 12 11 10 10 14 9 12 19 5 12 11 13 8 12 14 14 13 16 12 17 12 18 13 14 10 11 10 13 16 18 16 14 6 6 11 14
15 15 18 21 21 21 19 18 15 13 13 11 10 16 13 19 10 6 12 12 14 14 7 6 7 3 6 7 11 6 9 18 13 14 13 12 18 15 10 13 15 11 12 12 15
15 14 15 19 21 21 19 18 17 14 14 12 11 9 18 17 7 12 11 14 16 14 13 5 4 3 5 1 5 8 12 13 17 14 12 9 22 23 16 18 15 18 15 13 14
16 16 14 16 21 21 19 19 17 15 13 13 10 6 10 8 7 9 14 12 10 13 15 9 5 2 2 2 2 6 11 17 17 17 14 9 24 16 17 22 24 22 18 15 15
18 17 17 15 20 21 21 18 16 14 11 11 8 9 5 4 14 13 15 16 9 5 3 8 5 4 5 8 4 9 12 18 20 18 13 17 18 16 19 18 18 20 22 22 21
20 19 18 16 18 22 21 17 12 10 10 6 6 9 9 14 10 16 10 13 7 6 2 6 5 5 7 9 12 7 10 16 17 12 14 20 22 21 16 15 16 18 20 21 23
21 20 19 18 17 22 19 10 8 8 15 10 10 10 4 9 11 14 16 16 15 7 12 9 6 10 11 15 19 15 12 20 19 16 3 19 22 23 21 22 22 20 20 19 20
23 22 21 21 20 20 18 15 30 5 12 8 8 16 4 13 11 16 16 17 13 12 17 9 14 27 17 12 8 18 15 17 18 13 10 19 24 23 23 21 23 21 23 22 21
25 24 23 21 21 15 14 29 20 22 7 6 7 16 8 11 15 19 21 20 18 21 14 21 26 18 21 19 15 20 14 13 17 11 17 17 25 25 29 26 25 23 21 23 22
25 25 23 21 16 13 16 16 22 18 6 10 8 11 7 7 7 11 18 19 12 17 20 16 22 17 20 25 22 22 18 18 16 12 12 10 14 21 24 21 22 21 20 22 22
24 26 25 26 11 18 6 8 22 7 11 18 9 13 16 15 14 8 14 21 23 19 10 15 15 18 21 19 14 22 14 11 10 14 10 16 9 16 19 24 22 20 19 20 20
22 25 26 17 13 12 12 14 4 7 9 13 17 20 22 20 10 9 11 13 10 18 20 21 7 15 26 22 18 3 5 7 10 12 13 23 21 13 18 24 23 21 18 18 15
23 23 23 14 19 14 16 12 9 9 13 9 17 24 27 16 16 14 16 19 13 15 23 25 24 17 9 15 7 8 8 4 5 6 8 17 19 23 15 17 19 17 11 13 12
21 26 23 15 14 18 13 17 16 10 10 14 19 23 22 22 18 18 18 17 23 20 10 18 19 26 21 20 22 16 10 4 9 5 8 11 10 15 18 17 22 20 13 14 10
22 14 14 15 16 13 14 19 11 20 12 22 22 21 15 23 14 19 23 22 21 24 15 15 21 11 22 26 21 11 13 20 13 18 6 8 18 16 15 14 12 13 13 15 14
11 12 14 16 18 13 6 16 6 15 17 25 14 18 19 26 21 22 21 18 22 25 20 14 11 18 13 19 22 27 14 9 8 7 9 13 22 14 8 14 12 15 15 13 12
8 9 10 16 11 13 11 5 5 19 22 19 17 18 17 22 22 21 17 9 24 21 22 18 13 6 11 17 23 18 22 21 13 13 15 16 15 15 19 19 20 17 14 7 6
7 5 9 15 13 5 16 10 10 24 17 6 13 12 20 25 22 22 20 19 10 20 24 21 7 12 17 12 13 19 23 23 6 7 9 19 21 13 4 6 7 10 1 4 4
9 3 11 13 11 8 7 11 18 27 20 12 8 9 18 19 12 17 17 13 11 17 15 15 9 10 6 11 12 10 19 20 18 19 19 8 14 15 19 20 13 7 5 6 4
5 5 5 8 2 15 11 12 19 15 8 6 14 19 22 20 5 18 15 13 13 11 7 8 15 14 16 13 6 7 16 21 21 16 12 17 24 31 25 17 10 13 7 7 5
4 3 2 11 5 15 8 11 23 12 6 12 9 20 21 16 9 10 18 13 13 12 14 8 5 15 22 20 21 20 15 11 11 18 19 24 27 38 26 22 21 19 18 18 16
6 4 4 8 18 16 12 14 19 9 8 10 16 22 13 15 10 16 16 15 10 16 13 10 4 7 6 14 16 21 23 23 23 22 18 23 28 36 28 24 28 22 20 20 22
2 5 7 16 17 10 10 12 14 13 8 11 22 16 13 14 8 12 7 5 5 13 16 9 6 2 6 8 13 11 23 23 23 24 22 22 28 30 29 20 18 20 22 22 22
Wind_Direction
223 222 224 219 225 225 225 222 220 238 225 242 232 213 225 171 140 191 234 241 278 355 284 279 250 257 259 244 247 277 254 246 244 231 234 135 218 171 35 256 194 186 305 58 126
227 224 221 221 219 224 226 220 210 217 226 223 234 209 173 183 208 229 145 98 94 235 250 252 241 245 237 248 236 235 239 250 257 250 253 215 231 196 197 215 223 206 176 177 141
229 226 223 218 215 218 221 217 212 201 214 221 217 162 139 167 266 251 160 154 163 225 253 250 264 241 236 237 224 239 243 256 259 272 280 270 215 222 237 246 244 246 190 180 165
229 228 226 219 213 214 214 218 209 200 199 209 211 169 157 201 230 31 156 161 163 216 219 217 216 224 231 227 231 254 247 257 271 289 291 269 267 258 238 255 310 291 44 178 194
227 226 225 220 214 212 211 213 211 198 194 191 208 170 182 219 228 98 148 149 170 183 213 219 220 225 230 244 240 238 261 251 266 266 266 271 263 265 265 258 245 236 169 206 212
225 222 222 221 216 212 210 209 209 199 195 192 206 177 213 232 225 172 172 180 202 194 176 211 226 226 261 250 257 328 289 271 246 265 252 265 262 256 257 256 252 234 219 214 218
226 219 220 219 218 212 207 208 206 199 196 196 196 200 220 225 234 201 179 196 210 221 203 184 131 189 128 348 329 295 276 263 248 246 263 274 261 250 256 262 258 253 245 233 221
220 219 217 220 216 210 204 201 203 193 197 194 195 208 230 210 216 215 197 188 198 224 208 173 135 116 186 93 256 303 290 256 242 236 235 238 261 260 241 241 252 247 251 232 227
221 216 210 212 215 210 204 197 197 192 191 182 187 211 221 133 209 205 208 196 172 220 168 150 147 175 159 215 218 218 247 246 265 271 228 215 268 259 248 253 255 254 248 248 234
215 218 210 206 212 208 201 188 176 171 180 169 251 197 208 214 196 209 210 216 168 129 138 188 191 201 197 210 207 202 225 242 248 243 218 248 251 261 251 239 257 257 256 248 245
213 215 211 208 206 203 191 170 160 185 178 184 188 212 18 209 170 188 191 186 188 181 206 210 220 232 201 217 240 230 255 257 257 241 300 264 259 260 252 252 252 250 255 256 253
211 210 214 211 203 199 199 192 191 136 174 193 212 208 318 165 179 201 188 191 198 207 206 202 229 226 238 228 230 241 248 259 268 259 208 253 264 268 258 253 253 250 249 248 249
210 206 208 208 207 195 219 199 178 150 149 175 227 186 161 195 211 195 190 203 204 214 198 223 233 233 234 226 234 236 233 242 246 245 242 271 273 261 255 252 250 246 243 250 244
211 204 204 201 210 199 214 206 173 202 162 159 203 174 164 187 215 208 201 199 222 219 215 222 240 247 222 230 225 245 234 231 241 261 245 202 277 267 257 250 230 234 236 242 243
210 203 201 195 189 199 153 190 167 224 206 153 160 153 175 190 123 196 196 212 220 211 206 224 223 223 237 235 241 250 247 221 244 242 260 238 261 260 254 255 249 239 228 237 242
205 200 199 202 205 190 163 164 187 194 191 156 151 175 168 199 193 132 176 219 233 228 228 243 234 239 231 235 229 223 221 238 250 247 250 238 226 255 239 252 252 246 235 243 240
213 202 196 193 202 192 172 174 196 228 145 143 166 168 176 171 174 172 181 190 188 198 221 225 233 231 259 223 156 195 155 220 212 212 235 231 227 246 271 261 267 264 239 242 241
218 204 204 201 190 183 190 173 207 129 167 168 159 163 179 159 190 187 177 196 214 210 212 220 230 222 214 225 214 205 209 236 215 199 249 207 238 232 233 251 252 259 256 258 249
199 191 195 193 180 166 180 197 179 152 156 155 140 168 182 181 171 183 198 205 206 208 212 198 232 231 210 226 230 232 213 235 270 276 259 224 259 256 263 261 250 253 251 250 254
180 181 196 180 171 174 217 187 121 167 156 149 145 179 176 179 185 191 189 208 211 213 220 240 265 225 226 219 232 236 238 219 199 213 218 226 250 260 262 258 257 243 248 247 255
172 177 179 173 172 184 196 173 126 167 155 167 150 163 179 178 194 191 192 162 193 203 218 230 254 243 233 197 222 217 233 236 273 239 258 265 255 265 272 274 265 250 238 264 262
149 170 167 165 185 166 187 157 183 168 152 145 156 158 169 174 191 186 205 205 210 204 199 211 243 248 240 245 253 254 225 224 227 208 250 252 262 270 295 322 339 331 39 220 266
134 118 162 161 179 159 127 153 169 163 156 146 148 162 162 166 188 198 203 205 184 204 199 195 231 237 253 242 220 234 244 232 241 258 254 256 253 249 254 263 274 279 287 283 324
125 190 153 157 73 149 147 154 150 157 94 112 136 143 149 167 188 191 196 196 189 219 104 210 223 223 237 238 233 200 241 243 247 244 248 241 269 271 269 273 267 297 266 253 258
123 216 128 155 152 145 141 149 142 142 121 140 138 156 148 155 155 179 191 174 210 201 185 185 233 251 246 253 258 268 247 246 256 257 254 260 253 270 262 268 287 287 287 297 295
153 145 129 113 138 137 143 169 154 118 151 139 149 154 145 153 174 170 172 186 181 190 201 175 217 192 269 264 264 270 268 261 253 237 247 259 270 268 276 283 285 296 300 296 292
118 144 129 143 144 138 158 151 148 120 29 142 133 131 124 152 143 143 132 93 144 181 195 205 226 149 245 235 239 254 247 257 259 254 251 244 251 267 272 264 269 278 273 270 275